Tracking 19854 objects as of 22-Sep-2019
HD Live streaming from Space Station
objects crossing your sky now

FENGYUN 2H AKM

Track FENGYUN 2H AKM now!


NORAD ID: 43497
Int'l Code: 2018-050C
Perigee: 35,493.3 km
Apogee: 36,204.4 km
Inclination: 1.4 °
Period: 1,438.9 minutes
Semi major axis: 42219 km
RCS: Unknown
Launch date: June 5, 2018
Source: People's Republic of China (PRC)
Launch site: Xichang Space Center, China (XSC)

Note: This is a ROCKET BODY
aabbcc
Your satellite tracking list
Your tracking list is empty




NASA's NSSDC Master Catalog

Two Line Element Set (TLE):
1 43497U 18050C   19263.43240776 -.00000362  00000-0  00000+0 0  9996
2 43497   1.3511 279.7354 0084219  73.6266 286.4655  1.00075623  4667
Source of the keplerian elements: AFSPC